SPACEBEE-109 (48897 NORAD) Tracking and Keplerian Element Data

This shows tracking and keplerian element data for the satellite.

Feedback or suggestion? Click here.




ElementValue
Catalog48897
NameSPACEBEE-109
Epoch Orbit1392
Epoch Day268.93509513
Epoch Year2021
RAAN36.397
Inclination97.5263
Eccentricity0.0008592
Argument of Perigee300.0918
Mean Anonmoly59.946
Mean Motion15.12351873
Decay Rate2.573E-05
L11 48897U 21059U 21268.93509513 .00002573 00000-0 15206-3 0 9991
L22 48897 97.5263 36.3970 0008592 300.0918 59.9460 15.12351873 13927

Live tracking and technical data element details for SPACEBEE-109 (NORAD 48897). SPACEBEE-109 can be tracked NOW for your location showing map with azimuth and elevation plus other details from your city location.

Track the satellite on the map from your city or location and see movement details for azimuth, elevation, latitude, longitude, range, height, and movement on the map or in text.







IsCatalogInMostPopularTable: catalog: 48897, numindb: 13
Update: records affected: 1



GetName: 48897 SPACEBEE-109

Hit Count: updated at: Sun, 26 Sep 2021 15:27:37 GMT